Time,TemperatureF,DewpointF,PressureIn,WindDirection,WindDirectionDegrees,WindSpeedMPH,WindSpeedGustMPH,Humidity,HourlyPrecipIn,Conditions,Clouds,dailyrainin,SoftwareType,DateUTC
2013-02-23 00:00:00,25.9,12.8,29.55,West,271,3.6,7.6,57,0.00,,OVC032,0.00,VWS V14.01,2013-02-23 06:00:00,
2013-02-23 00:05:00,25.9,12.8,29.55,SW,233,5.8,5.8,57,0.00,,OVC034,0.00,VWS V14.01,2013-02-23 06:05:00,
2013-02-23 00:10:00,25.9,12.8,29.55,West,263,4.0,5.8,57,0.00,,OVC034,0.00,VWS V14.01,2013-02-23 06:10:00,
2013-02-23 00:15:00,25.9,12.4,29.55,West,270,4.0,5.8,56,0.00,,OVC034,0.00,VWS V14.01,2013-02-23 06:15:00,
2013-02-23 00:21:00,25.7,12.2,29.55,WSW,239,3.1,4.9,56,0.00,,OVC034,0.00,VWS V14.01,2013-02-23 06:21:00,
2013-02-23 00:26:00,25.7,12.6,29.55,WSW,258,3.1,6.3,57,0.00,,OVC034,0.00,VWS V14.01,2013-02-23 06:26:00,
2013-02-23 00:32:00,25.7,12.2,29.55,WSW,253,5.8,5.8,56,0.00,,OVC034,0.00,VWS V14.01,2013-02-23 06:32:00,
2013-02-23 00:37:00,25.5,12.4,29.55,SW,225,3.6,4.9,57,0.00,,OVC034,0.00,VWS V14.01,2013-02-23 06:37:00,
2013-02-23 00:42:00,25.5,12.4,29.55,WSW,252,3.1,4.0,57,0.00,,OVC034,0.00,VWS V14.01,2013-02-23 06:42:00,
2013-02-23 00:47:00,25.5,12.4,29.55,West,267,3.6,5.4,57,0.00,,OVC034,0.00,VWS V14.01,2013-02-23 06:47:00,
2013-02-23 00:52:00,25.5,12.0,29.55,WSW,237,4.0,5.4,56,0.00,,OVC034,0.00,VWS V14.01,2013-02-23 06:52:00,
2013-02-23 00:58:00,25.5,12.0,29.55,SW,236,3.6,5.8,56,0.00,,OVC034,0.00,VWS V14.01,2013-02-23 06:58:00,
2013-02-23 01:04:00,25.3,11.9,29.55,SW,220,4.9,6.3,56,0.00,,OVC038,0.00,VWS V14.01,2013-02-23 07:04:00,
2013-02-23 01:09:00,25.3,11.9,29.55,WSW,247,3.6,4.9,56,0.00,,OVC038,0.00,VWS V14.01,2013-02-23 07:09:00,
2013-02-23 01:15:00,25.3,11.9,29.55,West,263,5.8,5.8,56,0.00,,OVC038,0.00,VWS V14.01,2013-02-23 07:15:00,
2013-02-23 01:20:00,25.3,11.9,29.55,SW,229,4.9,8.7,56,0.00,,OVC038,0.00,VWS V14.01,2013-02-23 07:20:00,
2013-02-23 01:26:00,25.3,11.9,29.55,SW,229,4.9,5.4,56,0.00,,OVC038,0.00,VWS V14.01,2013-02-23 07:26:00,
2013-02-23 01:32:00,25.3,11.9,29.55,SW,233,3.1,4.0,56,0.00,,OVC038,0.00,VWS V14.01,2013-02-23 07:32:00,
2013-02-23 01:38:00,25.3,11.4,29.55,WSW,246,5.4,5.4,55,0.00,,OVC038,0.00,VWS V14.01,2013-02-23 07:38:00,
2013-02-23 01:43:00,25.2,11.3,29.55,WSW,256,5.8,6.3,55,0.00,,OVC038,0.00,VWS V14.01,2013-02-23 07:43:00,
2013-02-23 01:48:00,25.2,11.3,29.55,WSW,250,6.3,6.3,55,0.00,,OVC038,0.00,VWS V14.01,2013-02-23 07:48:00,
2013-02-23 01:53:00,25.2,11.3,29.55,West,277,3.1,4.0,55,0.00,,OVC038,0.00,VWS V14.01,2013-02-23 07:53:00,
2013-02-23 01:58:00,25.2,11.3,29.55,WSW,250,6.3,7.2,55,0.00,,OVC038,0.00,VWS V14.01,2013-02-23 07:58:00,
2013-02-23 02:04:00,25.2,10.9,29.55,West,264,4.9,7.6,54,0.00,,OVC044,0.00,VWS V14.01,2013-02-23 08:04:00,
2013-02-23 02:10:00,25.0,10.7,29.55,SW,230,3.6,4.9,54,0.00,,OVC044,0.00,VWS V14.01,2013-02-23 08:10:00,
2013-02-23 02:15:00,25.0,10.7,29.55,WSW,245,3.1,3.6,54,0.00,,OVC044,0.00,VWS V14.01,2013-02-23 08:15:00,
2013-02-23 02:20:00,24.8,10.5,29.55,WSW,252,3.6,6.3,54,0.00,,OVC044,0.00,VWS V14.01,2013-02-23 08:20:00,
2013-02-23 02:25:00,24.8,10.5,29.52,SW,220,2.7,4.0,54,0.00,,OVC044,0.00,VWS V14.01,2013-02-23 08:25:00,
2013-02-23 02:30:00,24.8,10.5,29.52,WSW,241,3.6,8.7,54,0.00,,OVC044,0.00,VWS V14.01,2013-02-23 08:30:00,
2013-02-23 02:35:00,24.8,10.5,29.52,SW,217,8.3,8.3,54,0.00,,OVC044,0.00,VWS V14.01,2013-02-23 08:35:00,
2013-02-23 02:41:00,24.6,10.4,29.52,WSW,238,5.4,6.7,54,0.00,,OVC044,0.00,VWS V14.01,2013-02-23 08:41:00,
2013-02-23 02:46:00,24.6,10.4,29.52,WSW,258,5.4,6.3,54,0.00,,OVC044,0.00,VWS V14.01,2013-02-23 08:46:00,
2013-02-23 02:52:00,24.6,10.4,29.52,SW,232,8.1,8.1,54,0.00,,OVC044,0.00,VWS V14.01,2013-02-23 08:52:00,
2013-02-23 02:57:00,24.6,10.4,29.52,WSW,249,4.9,4.9,54,0.00,,OVC044,0.00,VWS V14.01,2013-02-23 08:57:00,
2013-02-23 03:03:00,24.6,10.4,29.52,SW,227,7.6,10.5,54,0.00,,OVC045,0.00,VWS V14.01,2013-02-23 09:03:00,
2013-02-23 03:09:00,24.6,10.4,29.52,West,262,8.1,8.1,54,0.00,,OVC045,0.00,VWS V14.01,2013-02-23 09:09:00,
2013-02-23 03:14:00,24.6,10.4,29.52,WSW,248,4.0,6.3,54,0.00,,OVC045,0.00,VWS V14.01,2013-02-23 09:14:00,
2013-02-23 03:19:00,24.4,10.2,29.52,West,274,4.9,6.3,54,0.00,,OVC045,0.00,VWS V14.01,2013-02-23 09:19:00,
2013-02-23 03:25:00,24.4,10.2,29.52,WSW,253,8.7,8.7,54,0.00,,OVC045,0.00,VWS V14.01,2013-02-23 09:25:00,
2013-02-23 03:31:00,24.4,10.2,29.52,SW,221,10.1,10.5,54,0.00,,OVC045,0.00,VWS V14.01,2013-02-23 09:31:00,
2013-02-23 03:36:00,24.4,10.2,29.52,SSW,212,5.8,8.1,54,0.00,,OVC045,0.00,VWS V14.01,2013-02-23 09:36:00,
2013-02-23 03:42:00,24.4,10.6,29.52,SSW,209,8.1,8.7,55,0.00,,OVC045,0.00,VWS V14.01,2013-02-23 09:42:00,
2013-02-23 03:47:00,24.4,10.6,29.52,SW,215,3.6,5.8,55,0.00,,OVC045,0.00,VWS V14.01,2013-02-23 09:47:00,
2013-02-23 03:52:00,24.4,10.6,29.52,WSW,253,3.1,6.3,55,0.00,,OVC045,0.00,VWS V14.01,2013-02-23 09:52:00,
2013-02-23 03:57:00,24.4,10.6,29.52,SW,223,3.6,5.8,55,0.00,,OVC045,0.00,VWS V14.01,2013-02-23 09:57:00,
2013-02-23 04:03:00,24.3,10.4,29.52,SW,225,6.3,6.3,55,0.00,,OVC045,0.00,VWS V14.01,2013-02-23 10:03:00,
2013-02-23 04:09:00,24.3,10.0,29.52,SW,224,5.4,7.6,54,0.00,,OVC045,0.00,VWS V14.01,2013-02-23 10:09:00,
2013-02-23 04:14:00,24.1,9.9,29.52,WSW,256,5.4,8.7,54,0.00,,OVC045,0.00,VWS V14.01,2013-02-23 10:14:00,
2013-02-23 04:20:00,24.1,9.9,29.52,WSW,247,5.8,6.3,54,0.00,,OVC045,0.00,VWS V14.01,2013-02-23 10:20:00,
2013-02-23 04:25:00,24.1,9.9,29.55,West,264,6.3,6.3,54,0.00,,OVC045,0.00,VWS V14.01,2013-02-23 10:25:00,
2013-02-23 04:30:00,24.1,10.3,29.55,SW,229,8.3,8.7,55,0.00,,OVC045,0.00,VWS V14.01,2013-02-23 10:30:00,
2013-02-23 04:35:00,24.1,10.3,29.55,West,261,5.8,8.3,55,0.00,,OVC045,0.00,VWS V14.01,2013-02-23 10:35:00,
2013-02-23 04:40:00,24.1,10.3,29.55,SW,224,7.6,7.6,55,0.00,,OVC045,0.00,VWS V14.01,2013-02-23 10:40:00,
2013-02-23 04:46:00,24.1,10.3,29.55,WSW,240,4.0,6.7,55,0.00,,OVC045,0.00,VWS V14.01,2013-02-23 10:46:00,
2013-02-23 04:52:00,23.9,10.1,29.55,SW,227,6.3,11.0,55,0.00,,OVC045,0.00,VWS V14.01,2013-02-23 10:52:00,
2013-02-23 04:57:00,23.9,10.1,29.55,WSW,246,4.0,10.5,55,0.00,,OVC045,0.00,VWS V14.01,2013-02-23 10:57:00,
2013-02-23 05:03:00,23.9,10.1,29.55,WSW,237,6.7,8.1,55,0.00,,OVC018,0.00,VWS V14.01,2013-02-23 11:03:00,
2013-02-23 05:08:00,23.9,10.1,29.55,West,265,5.4,8.1,55,0.00,,OVC018,0.00,VWS V14.01,2013-02-23 11:08:00,
2013-02-23 05:14:00,23.7,9.9,29.55,WSW,256,4.9,6.3,55,0.00,,OVC018,0.00,VWS V14.01,2013-02-23 11:14:00,
2013-02-23 05:19:00,23.7,9.9,29.55,West,270,8.3,8.3,55,0.00,,OVC018,0.00,VWS V14.01,2013-02-23 11:19:00,
2013-02-23 05:25:00,23.7,9.9,29.55,SW,217,5.8,6.3,55,0.00,,OVC018,0.00,VWS V14.01,2013-02-23 11:25:00,
2013-02-23 05:31:00,23.7,9.9,29.55,SW,229,5.8,5.8,55,0.00,,OVC018,0.00,VWS V14.01,2013-02-23 11:31:00,
2013-02-23 05:37:00,23.7,10.3,29.55,WSW,258,5.4,7.6,56,0.00,,OVC018,0.00,VWS V14.01,2013-02-23 11:37:00,
2013-02-23 05:42:00,23.7,10.3,29.55,WSW,239,5.4,10.1,56,0.00,,OVC018,0.00,VWS V14.01,2013-02-23 11:42:00,
2013-02-23 05:47:00,23.5,10.2,29.55,WSW,245,4.9,8.1,56,0.00,,OVC018,0.00,VWS V14.01,2013-02-23 11:47:00,
2013-02-23 05:52:00,23.5,10.2,29.55,WSW,246,4.9,6.7,56,0.00,,OVC018,0.00,VWS V14.01,2013-02-23 11:52:00,
2013-02-23 05:57:00,23.5,10.2,29.55,WSW,244,8.1,10.1,56,0.00,,OVC018,0.00,VWS V14.01,2013-02-23 11:57:00,
2013-02-23 06:02:00,23.5,10.2,29.55,SW,236,8.3,8.3,56,0.00,,OVC018,0.00,VWS V14.01,2013-02-23 12:02:00,
2013-02-23 06:08:00,23.5,10.2,29.55,SW,225,8.7,8.7,56,0.00,,OVC018,0.00,VWS V14.01,2013-02-23 12:08:00,
2013-02-23 06:13:00,23.5,10.2,29.55,WSW,243,5.8,7.2,56,0.00,,OVC018,0.00,VWS V14.01,2013-02-23 12:13:00,
2013-02-23 06:18:00,23.5,10.2,29.55,SW,224,3.1,6.3,56,0.00,,OVC018,0.00,VWS V14.01,2013-02-23 12:18:00,
2013-02-23 06:23:00,23.5,10.6,29.55,SW,219,4.0,5.4,57,0.00,,OVC018,0.00,VWS V14.01,2013-02-23 12:23:00,
2013-02-23 06:29:00,23.5,10.6,29.55,SW,234,5.4,8.7,57,0.00,,OVC018,0.00,VWS V14.01,2013-02-23 12:29:00,
2013-02-23 06:34:00,23.5,10.6,29.55,SW,230,4.9,7.6,57,0.00,,OVC018,0.00,VWS V14.01,2013-02-23 12:34:00,
2013-02-23 06:39:00,23.5,10.6,29.55,SW,227,5.4,7.6,57,0.00,,OVC018,0.00,VWS V14.01,2013-02-23 12:39:00,
2013-02-23 06:44:00,23.5,10.6,29.55,SW,216,3.6,7.2,57,0.00,,OVC018,0.00,VWS V14.01,2013-02-23 12:44:00,
2013-02-23 06:50:00,23.4,10.8,29.55,WSW,240,5.4,8.1,58,0.00,,OVC018,0.00,VWS V14.01,2013-02-23 12:50:00,
2013-02-23 06:55:00,23.4,10.8,29.55,SW,220,6.3,8.1,58,0.00,,OVC018,0.00,VWS V14.01,2013-02-23 12:55:00,
2013-02-23 07:00:00,23.4,10.8,29.55,WSW,238,7.6,11.0,58,0.00,,OVC018,0.00,VWS V14.01,2013-02-23 13:00:00,
2013-02-23 07:06:00,23.4,10.8,29.55,SW,234,8.1,10.1,58,0.00,,OVC014,0.00,VWS V14.01,2013-02-23 13:06:00,
2013-02-23 07:11:00,23.4,10.8,29.58,SW,219,5.8,5.8,58,0.00,,OVC014,0.00,VWS V14.01,2013-02-23 13:11:00,
2013-02-23 07:16:00,23.4,10.8,29.58,SW,228,10.1,10.1,58,0.00,,OVC014,0.00,VWS V14.01,2013-02-23 13:16:00,
2013-02-23 07:21:00,23.2,11.0,29.58,SSW,213,5.4,6.3,59,0.00,,OVC014,0.00,VWS V14.01,2013-02-23 13:21:00,
2013-02-23 07:26:00,23.2,11.0,29.58,WSW,255,3.6,7.6,59,0.00,,OVC014,0.00,VWS V14.01,2013-02-23 13:26:00,
2013-02-23 07:32:00,23.2,11.0,29.58,WSW,253,5.8,8.1,59,0.00,,OVC014,0.00,VWS V14.01,2013-02-23 13:32:00,
2013-02-23 07:37:00,23.2,11.0,29.58,SW,215,4.9,5.8,59,0.00,,OVC014,0.00,VWS V14.01,2013-02-23 13:37:00,
2013-02-23 07:42:00,23.2,11.4,29.55,SW,222,8.1,10.1,60,0.00,,OVC014,0.00,VWS V14.01,2013-02-23 13:42:00,
2013-02-23 07:47:00,23.2,11.4,29.55,SW,220,8.7,8.7,60,0.00,,OVC014,0.00,VWS V14.01,2013-02-23 13:47:00,
2013-02-23 07:52:00,23.0,11.6,29.55,West,260,5.8,8.1,61,0.00,,OVC014,0.00,VWS V14.01,2013-02-23 13:52:00,
2013-02-23 07:58:00,23.2,11.7,29.55,WSW,252,8.3,10.5,61,0.00,,OVC014,0.00,VWS V14.01,2013-02-23 13:58:00,
2013-02-23 08:04:00,23.2,11.7,29.55,SW,230,5.4,5.8,61,0.00,,,0.00,VWS V14.01,2013-02-23 14:04:00,
2013-02-23 08:13:00,23.0,12.3,29.55,West,276,8.1,8.1,63,0.00,,,0.00,VWS V14.01,2013-02-23 14:13:00,
2013-02-23 08:19:00,23.2,12.5,29.55,West,266,2.7,5.4,63,0.00,,,0.00,VWS V14.01,2013-02-23 14:19:00,
2013-02-23 08:24:00,23.2,12.5,29.55,West,265,8.7,10.5,63,0.00,,,0.00,VWS V14.01,2013-02-23 14:24:00,
2013-02-23 08:29:00,23.2,12.5,29.55,SW,229,8.1,8.7,63,0.00,,,0.00,VWS V14.01,2013-02-23 14:29:00,
2013-02-23 08:35:00,23.2,12.8,29.55,West,260,8.1,8.1,64,0.00,,,0.00,VWS V14.01,2013-02-23 14:35:00,
2013-02-23 08:40:00,23.2,12.8,29.55,SW,233,7.6,8.3,64,0.00,,,0.00,VWS V14.01,2013-02-23 14:40:00,
2013-02-23 08:45:00,23.2,13.2,29.55,WSW,243,5.4,5.4,65,0.00,,,0.00,VWS V14.01,2013-02-23 14:45:00,
2013-02-23 08:51:00,23.4,13.4,29.55,SW,231,5.8,5.8,65,0.00,,,0.00,VWS V14.01,2013-02-23 14:51:00,
2013-02-23 08:56:00,23.4,13.0,29.55,SW,221,5.8,5.8,64,0.00,,,0.00,VWS V14.01,2013-02-23 14:56:00,
2013-02-23 09:01:00,23.5,12.8,29.55,WSW,244,5.4,7.2,63,0.00,,,0.00,VWS V14.01,2013-02-23 15:01:00,
2013-02-23 09:07:00,23.5,12.4,29.55,WSW,252,4.0,8.1,62,0.00,,,0.00,VWS V14.01,2013-02-23 15:07:00,
2013-02-23 09:13:00,23.7,12.2,29.55,SSW,209,6.3,6.3,61,0.00,,,0.00,VWS V14.01,2013-02-23 15:13:00,
2013-02-23 09:18:00,23.7,11.9,29.55,SW,230,6.7,8.3,60,0.00,,,0.00,VWS V14.01,2013-02-23 15:18:00,
2013-02-23 09:23:00,23.9,11.7,29.55,West,276,6.3,6.3,59,0.00,,,0.00,VWS V14.01,2013-02-23 15:23:00,
2013-02-23 09:29:00,23.9,10.9,29.55,WSW,238,6.3,6.3,57,0.00,,,0.00,VWS V14.01,2013-02-23 15:29:00,
2013-02-23 09:34:00,24.1,11.1,29.55,West,262,4.9,5.8,57,0.00,,,0.00,VWS V14.01,2013-02-23 15:34:00,
2013-02-23 09:40:00,24.1,9.9,29.55,SW,225,6.3,6.7,54,0.00,,,0.00,VWS V14.01,2013-02-23 15:40:00,
2013-02-23 09:45:00,24.3,10.0,29.55,WSW,256,4.0,10.1,54,0.00,,,0.00,VWS V14.01,2013-02-23 15:45:00,
2013-02-23 09:50:00,24.1,9.9,29.55,SW,222,5.8,8.1,54,0.00,,,0.00,VWS V14.01,2013-02-23 15:50:00,
2013-02-23 09:55:00,24.3,10.0,29.55,SW,229,6.3,6.3,54,0.00,,,0.00,VWS V14.01,2013-02-23 15:55:00,
2013-02-23 10:00:00,24.4,10.2,29.55,West,266,5.8,6.3,54,0.00,,,0.00,VWS V14.01,2013-02-23 16:00:00,
2013-02-23 10:05:00,24.4,9.8,29.55,WSW,249,6.3,8.7,53,0.00,,,0.00,VWS V14.01,2013-02-23 16:05:00,
2013-02-23 10:11:00,24.6,9.9,29.55,SW,214,5.8,5.8,53,0.00,,,0.00,VWS V14.01,2013-02-23 16:11:00,
2013-02-23 10:16:00,24.4,9.4,29.55,WSW,252,5.4,9.2,52,0.00,,,0.00,VWS V14.01,2013-02-23 16:16:00,
2013-02-23 10:21:00,24.6,9.5,29.55,WSW,237,8.3,8.3,52,0.00,,,0.00,VWS V14.01,2013-02-23 16:21:00,
2013-02-23 10:26:00,24.8,9.2,29.55,SSW,213,11.4,11.4,51,0.00,,,0.00,VWS V14.01,2013-02-23 16:26:00,
2013-02-23 10:32:00,24.8,8.8,29.55,WSW,243,8.7,8.7,50,0.00,,,0.00,VWS V14.01,2013-02-23 16:32:00,
2013-02-23 10:38:00,24.8,9.2,29.55,WSW,243,5.8,12.8,51,0.00,,,0.00,VWS V14.01,2013-02-23 16:38:00,
2013-02-23 10:44:00,25.3,9.3,29.58,WNW,285,5.8,5.8,50,0.00,,,0.00,VWS V14.01,2013-02-23 16:44:00,
2013-02-23 10:49:00,25.5,9.0,29.58,West,267,5.4,8.1,49,0.00,,,0.00,VWS V14.01,2013-02-23 16:49:00,
2013-02-23 10:55:00,25.9,8.9,29.58,WNW,284,6.3,6.3,48,0.00,,,0.00,VWS V14.01,2013-02-23 16:55:00,
2013-02-23 11:01:00,25.9,8.0,29.58,WNW,291,4.9,5.8,46,0.00,,OVC060,0.00,VWS V14.01,2013-02-23 17:01:00,
2013-02-23 11:06:00,26.1,8.6,29.58,WNW,284,4.0,5.8,47,0.00,,OVC060,0.00,VWS V14.01,2013-02-23 17:06:00,
2013-02-23 11:12:00,25.9,8.0,29.58,WSW,249,5.8,7.6,46,0.00,,OVC060,0.00,VWS V14.01,2013-02-23 17:12:00,
2013-02-23 11:18:00,26.1,8.1,29.58,SW,232,4.0,6.3,46,0.00,,OVC060,0.00,VWS V14.01,2013-02-23 17:18:00,
2013-02-23 11:24:00,26.1,8.1,29.58,WSW,243,5.8,10.1,46,0.00,,OVC060,0.00,VWS V14.01,2013-02-23 17:24:00,
2013-02-23 11:29:00,25.9,8.0,29.58,SW,224,5.8,8.1,46,0.00,,OVC060,0.00,VWS V14.01,2013-02-23 17:29:00,
2013-02-23 11:35:00,25.7,7.8,29.58,WSW,257,6.3,8.1,46,0.00,,OVC060,0.00,VWS V14.01,2013-02-23 17:35:00,
2013-02-23 11:40:00,25.9,8.0,29.58,WSW,258,5.4,7.6,46,0.00,,OVC060,0.00,VWS V14.01,2013-02-23 17:40:00,
2013-02-23 11:45:00,25.9,7.5,29.58,West,259,3.1,11.0,45,0.00,,OVC060,0.00,VWS V14.01,2013-02-23 17:45:00,
2013-02-23 11:50:00,26.2,8.3,29.58,West,260,2.7,5.8,46,0.00,,OVC060,0.00,VWS V14.01,2013-02-23 17:50:00,
2013-02-23 11:56:00,26.6,8.1,29.58,WSW,253,5.8,7.6,45,0.00,,OVC060,0.00,VWS V14.01,2013-02-23 17:56:00,
2013-02-23 12:01:00,26.8,7.8,29.58,SW,222,6.3,6.3,44,0.00,,OVC016,0.00,VWS V14.01,2013-02-23 18:01:00,
2013-02-23 12:07:00,27.3,8.3,29.58,WNW,290,4.0,4.9,44,0.00,,OVC016,0.00,VWS V14.01,2013-02-23 18:07:00,
2013-02-23 12:13:00,27.7,8.1,29.55,SW,230,7.6,7.6,43,0.00,,OVC016,0.00,VWS V14.01,2013-02-23 18:13:00,
2013-02-23 12:18:00,27.9,7.8,29.55,West,262,7.2,7.6,42,0.00,,OVC016,0.00,VWS V14.01,2013-02-23 18:18:00,
2013-02-23 12:24:00,27.9,7.8,29.55,WSW,237,3.6,6.3,42,0.00,,OVC016,0.00,VWS V14.01,2013-02-23 18:24:00,
2013-02-23 12:29:00,28.0,7.9,29.55,West,264,3.6,8.3,42,0.00,,OVC016,0.00,VWS V14.01,2013-02-23 18:29:00,
2013-02-23 12:34:00,28.0,7.9,29.55,SSW,196,7.2,7.6,42,0.00,,OVC016,0.00,VWS V14.01,2013-02-23 18:34:00,
2013-02-23 12:39:00,28.0,7.9,29.55,WSW,250,5.4,6.3,42,0.00,,OVC016,0.00,VWS V14.01,2013-02-23 18:39:00,
2013-02-23 12:45:00,28.0,7.9,29.55,West,261,3.6,5.8,42,0.00,,OVC016,0.00,VWS V14.01,2013-02-23 18:45:00,
2013-02-23 12:50:00,28.2,8.1,29.55,SW,232,6.3,6.3,42,0.00,,OVC016,0.00,VWS V14.01,2013-02-23 18:50:00,
2013-02-23 12:55:00,28.2,8.1,29.58,West,265,4.9,7.6,42,0.00,,OVC016,0.00,VWS V14.01,2013-02-23 18:55:00,
2013-02-23 13:00:00,28.2,7.6,29.58,WSW,258,4.0,6.3,41,0.00,,OVC016,0.00,VWS V14.01,2013-02-23 19:00:00,
2013-02-23 13:06:00,28.4,7.7,29.58,West,265,4.0,6.3,41,0.00,,OVC016,0.00,VWS V14.01,2013-02-23 19:06:00,
2013-02-23 13:11:00,28.6,7.9,29.55,West,266,5.4,6.3,41,0.00,,OVC016,0.00,VWS V14.01,2013-02-23 19:11:00,
2013-02-23 13:17:00,28.6,7.9,29.55,WSW,245,5.8,9.2,41,0.00,,OVC016,0.00,VWS V14.01,2013-02-23 19:17:00,
2013-02-23 13:23:00,28.4,7.7,29.55,SW,234,3.1,8.3,41,0.00,,OVC016,0.00,VWS V14.01,2013-02-23 19:23:00,
2013-02-23 13:29:00,28.6,7.9,29.55,South,190,6.3,6.3,41,0.00,,OVC016,0.00,VWS V14.01,2013-02-23 19:29:00,
2013-02-23 13:35:00,28.4,7.7,29.55,SW,230,6.3,7.6,41,0.00,,OVC016,0.00,VWS V14.01,2013-02-23 19:35:00,
2013-02-23 13:40:00,28.6,7.9,29.55,South,177,5.4,8.1,41,0.00,,OVC016,0.00,VWS V14.01,2013-02-23 19:40:00,
2013-02-23 13:45:00,28.6,7.9,29.55,SW,233,4.9,7.6,41,0.00,,OVC016,0.00,VWS V14.01,2013-02-23 19:45:00,
2013-02-23 13:50:00,28.4,7.7,29.55,WSW,251,5.8,7.6,41,0.00,,OVC016,0.00,VWS V14.01,2013-02-23 19:50:00,
2013-02-23 13:56:00,28.4,7.7,29.55,WNW,286,3.6,3.6,41,0.00,,OVC016,0.00,VWS V14.01,2013-02-23 19:56:00,
2013-02-23 14:01:00,28.6,6.2,29.55,WNW,293,3.6,4.0,38,0.00,,OVC055,0.00,VWS V14.01,2013-02-23 20:01:00,
2013-02-23 14:06:00,28.4,6.1,29.55,West,267,3.6,4.0,38,0.00,,OVC055,0.00,VWS V14.01,2013-02-23 20:06:00,
2013-02-23 14:11:00,28.4,6.1,29.55,West,274,3.1,5.4,38,0.00,,OVC055,0.00,VWS V14.01,2013-02-23 20:11:00,
2013-02-23 14:17:00,28.2,5.3,29.55,WSW,250,3.6,4.9,37,0.00,,OVC055,0.00,VWS V14.01,2013-02-23 20:17:00,
2013-02-23 14:22:00,28.4,6.1,29.55,WNW,282,2.7,3.6,38,0.00,,OVC055,0.00,VWS V14.01,2013-02-23 20:22:00,
2013-02-23 14:27:00,28.6,5.6,29.55,WSW,244,2.7,3.6,37,0.00,,OVC055,0.00,VWS V14.01,2013-02-23 20:27:00,
2013-02-23 14:33:00,28.8,5.8,29.55,WSW,243,3.6,3.6,37,0.00,,OVC055,0.00,VWS V14.01,2013-02-23 20:33:00,
2013-02-23 14:38:00,28.8,5.8,29.55,WNW,296,3.6,3.6,37,0.00,,OVC055,0.00,VWS V14.01,2013-02-23 20:38:00,
2013-02-23 14:44:00,28.6,5.0,29.55,SW,218,8.1,8.1,36,0.00,,OVC055,0.00,VWS V14.01,2013-02-23 20:44:00,
2013-02-23 14:49:00,28.6,5.0,29.55,West,276,0.0,3.1,36,0.00,,OVC055,0.00,VWS V14.01,2013-02-23 20:49:00,
2013-02-23 14:54:00,28.6,4.4,29.55,West,269,2.7,5.4,35,0.00,,OVC055,0.00,VWS V14.01,2013-02-23 20:54:00,
2013-02-23 15:00:00,28.8,5.2,29.55,SW,226,5.8,7.6,36,0.00,,OVC055,0.00,VWS V14.01,2013-02-23 21:00:00,
2013-02-23 15:06:00,28.8,5.8,29.55,SSW,207,4.0,4.0,37,0.00,,OVC055,0.00,VWS V14.01,2013-02-23 21:06:00,
2013-02-23 15:12:00,28.6,5.6,29.55,WSW,250,4.9,6.3,37,0.00,,OVC055,0.00,VWS V14.01,2013-02-23 21:12:00,
2013-02-23 15:17:00,28.6,5.6,29.55,SW,233,4.0,6.3,37,0.00,,OVC055,0.00,VWS V14.01,2013-02-23 21:17:00,
2013-02-23 15:22:00,28.6,6.2,29.55,SW,228,4.0,5.8,38,0.00,,OVC055,0.00,VWS V14.01,2013-02-23 21:22:00,
2013-02-23 15:27:00,28.6,6.8,29.55,SSW,213,5.8,5.8,39,0.00,,OVC055,0.00,VWS V14.01,2013-02-23 21:27:00,
2013-02-23 15:32:00,28.8,6.4,29.55,West,262,4.9,8.1,38,0.00,,OVC055,0.00,VWS V14.01,2013-02-23 21:32:00,
2013-02-23 15:38:00,28.6,5.6,29.55,WSW,257,3.6,6.3,37,0.00,,OVC055,0.00,VWS V14.01,2013-02-23 21:38:00,
2013-02-23 15:44:00,28.8,4.6,29.55,WSW,250,3.6,5.8,35,0.00,,OVC055,0.00,VWS V14.01,2013-02-23 21:44:00,
2013-02-23 15:50:00,28.8,4.6,29.55,SSW,196,5.8,7.6,35,0.00,,OVC055,0.00,VWS V14.01,2013-02-23 21:50:00,
2013-02-23 15:55:00,28.6,4.4,29.55,SW,234,5.4,6.3,35,0.00,,OVC055,0.00,VWS V14.01,2013-02-23 21:55:00,
2013-02-23 16:00:00,28.6,4.4,29.55,WSW,252,3.6,4.0,35,0.00,,OVC055,0.00,VWS V14.01,2013-02-23 22:00:00,
2013-02-23 16:05:00,28.6,3.8,29.55,WSW,248,5.4,5.8,34,0.00,,OVC045,0.00,VWS V14.01,2013-02-23 22:05:00,
2013-02-23 16:10:00,28.4,4.2,29.55,WSW,257,3.6,4.0,35,0.00,,OVC045,0.00,VWS V14.01,2013-02-23 22:10:00,
2013-02-23 16:16:00,28.2,4.1,29.55,WSW,241,6.7,6.7,35,0.00,,OVC045,0.00,VWS V14.01,2013-02-23 22:16:00,
2013-02-23 16:21:00,28.0,3.9,29.55,West,272,3.1,4.9,35,0.00,,OVC045,0.00,VWS V14.01,2013-02-23 22:21:00,
2013-02-23 16:27:00,28.0,3.9,29.58,WSW,254,2.7,4.9,35,0.00,,OVC045,0.00,VWS V14.01,2013-02-23 22:27:00,
2013-02-23 16:33:00,28.0,3.9,29.58,West,263,4.0,6.3,35,0.00,,OVC045,0.00,VWS V14.01,2013-02-23 22:33:00,
2013-02-23 16:39:00,28.0,4.5,29.58,WSW,243,3.6,4.9,36,0.00,,OVC045,0.00,VWS V14.01,2013-02-23 22:39:00,
2013-02-23 16:44:00,27.9,4.4,29.58,WSW,241,4.9,8.7,36,0.00,,OVC045,0.00,VWS V14.01,2013-02-23 22:44:00,
2013-02-23 16:49:00,27.9,5.0,29.58,SSW,212,5.4,5.8,37,0.00,,OVC045,0.00,VWS V14.01,2013-02-23 22:49:00,
2013-02-23 16:55:00,27.9,5.0,29.58,WSW,245,3.1,4.0,37,0.00,,OVC045,0.00,VWS V14.01,2013-02-23 22:55:00,
2013-02-23 17:00:00,27.9,5.0,29.58,West,276,3.6,5.4,37,0.00,,OVC045,0.00,VWS V14.01,2013-02-23 23:00:00,
2013-02-23 17:05:00,27.7,4.8,29.58,WSW,239,3.6,5.4,37,0.00,,OVC037,0.00,VWS V14.01,2013-02-23 23:05:00,
2013-02-23 17:11:00,27.5,5.8,29.58,West,280,3.6,3.6,39,0.00,,OVC037,0.00,VWS V14.01,2013-02-23 23:11:00,
2013-02-23 17:16:00,27.1,5.5,29.58,WNW,289,2.7,3.6,39,0.00,,OVC037,0.00,VWS V14.01,2013-02-23 23:16:00,
2013-02-23 17:22:00,27.0,6.9,29.58,WSW,237,6.3,8.1,42,0.00,,OVC037,0.00,VWS V14.01,2013-02-23 23:22:00,
2013-02-23 17:27:00,26.8,6.8,29.58,WSW,257,5.4,8.1,42,0.00,,OVC037,0.00,VWS V14.01,2013-02-23 23:27:00,
2013-02-23 17:33:00,26.6,7.1,29.58,West,275,4.0,6.3,43,0.00,,OVC037,0.00,VWS V14.01,2013-02-23 23:33:00,
2013-02-23 17:38:00,26.4,7.5,29.58,WSW,250,6.3,6.3,44,0.00,,OVC037,0.00,VWS V14.01,2013-02-23 23:38:00,
2013-02-23 17:44:00,26.4,7.5,29.58,West,280,3.1,3.6,44,0.00,,OVC037,0.00,VWS V14.01,2013-02-23 23:44:00,
2013-02-23 17:50:00,26.2,7.8,29.58,WSW,258,4.0,5.4,45,0.00,,OVC037,0.00,VWS V14.01,2013-02-23 23:50:00,
2013-02-23 17:55:00,26.1,8.6,29.58,WSW,247,5.4,5.4,47,0.00,,OVC037,0.00,VWS V14.01,2013-02-23 23:55:00,
2013-02-23 18:01:00,26.1,9.1,29.58,SW,228,5.8,6.3,48,0.00,,,0.00,VWS V14.01,2013-02-24 00:01:00,
2013-02-23 18:06:00,26.1,9.5,29.58,SW,235,4.9,5.8,49,0.00,,,0.00,VWS V14.01,2013-02-24 00:06:00,
2013-02-23 18:12:00,26.1,9.5,29.58,WSW,239,6.3,6.3,49,0.00,,,0.00,VWS V14.01,2013-02-24 00:12:00,
2013-02-23 18:18:00,26.1,9.5,29.58,WSW,241,4.0,5.8,49,0.00,,,0.00,VWS V14.01,2013-02-24 00:18:00,
2013-02-23 18:23:00,26.1,9.1,29.58,WSW,253,3.1,4.0,48,0.00,,,0.00,VWS V14.01,2013-02-24 00:23:00,
2013-02-23 18:28:00,26.1,8.6,29.61,West,277,5.4,5.4,47,0.00,,,0.00,VWS V14.01,2013-02-24 00:28:00,
2013-02-23 18:33:00,26.1,8.6,29.61,WSW,240,2.7,4.5,47,0.00,,,0.00,VWS V14.01,2013-02-24 00:33:00,
2013-02-23 18:39:00,26.1,8.1,29.61,WSW,257,3.6,5.8,46,0.00,,,0.00,VWS V14.01,2013-02-24 00:39:00,
2013-02-23 18:44:00,26.1,8.1,29.61,WSW,256,2.7,4.0,46,0.00,,,0.00,VWS V14.01,2013-02-24 00:44:00,
2013-02-23 18:49:00,26.1,8.1,29.61,SW,228,3.6,3.6,46,0.00,,,0.00,VWS V14.01,2013-02-24 00:49:00,
2013-02-23 18:54:00,26.1,8.1,29.61,WSW,247,3.6,4.9,46,0.00,,,0.00,VWS V14.01,2013-02-24 00:54:00,
2013-02-23 18:59:00,26.1,7.6,29.61,WSW,258,4.0,4.0,45,0.00,,,0.00,VWS V14.01,2013-02-24 00:59:00,
2013-02-23 19:04:00,26.2,7.8,29.61,SW,225,3.6,4.0,45,0.00,,,0.00,VWS V14.01,2013-02-24 01:04:00,
2013-02-23 19:10:00,26.1,7.6,29.61,SW,234,4.0,4.0,45,0.00,,,0.00,VWS V14.01,2013-02-24 01:10:00,
2013-02-23 19:15:00,26.1,8.1,29.61,WSW,240,6.3,6.3,46,0.00,,,0.00,VWS V14.01,2013-02-24 01:15:00,
2013-02-23 19:21:00,26.1,8.1,29.61,WSW,237,3.1,4.0,46,0.00,,,0.00,VWS V14.01,2013-02-24 01:21:00,
2013-02-23 19:26:00,26.1,8.1,29.61,WSW,248,4.9,5.8,46,0.00,,,0.00,VWS V14.01,2013-02-24 01:26:00,
2013-02-23 19:32:00,26.1,8.6,29.61,SW,231,2.7,3.6,47,0.00,,,0.00,VWS V14.01,2013-02-24 01:32:00,
2013-02-23 19:38:00,25.9,8.9,29.61,SW,227,4.0,4.5,48,0.00,,,0.00,VWS V14.01,2013-02-24 01:38:00,
2013-02-23 19:43:00,25.9,9.4,29.61,SW,224,3.1,5.4,49,0.00,,,0.00,VWS V14.01,2013-02-24 01:43:00,
2013-02-23 19:49:00,25.7,9.6,29.61,SW,215,4.0,5.4,50,0.00,,,0.00,VWS V14.01,2013-02-24 01:49:00,
2013-02-23 19:54:00,25.3,9.3,29.61,SW,229,4.0,5.4,50,0.00,,,0.00,VWS V14.01,2013-02-24 01:54:00,
2013-02-23 20:00:00,25.2,9.1,29.61,SSW,213,4.0,4.0,50,0.00,,,0.00,VWS V14.01,2013-02-24 02:00:00,
2013-02-23 20:05:00,24.8,8.8,29.61,SW,220,3.6,5.8,50,0.00,,,0.00,VWS V14.01,2013-02-24 02:05:00,
2013-02-23 20:11:00,24.6,8.2,29.61,SW,224,4.5,4.5,49,0.00,,,0.00,VWS V14.01,2013-02-24 02:11:00,
2013-02-23 20:17:00,24.4,8.0,29.61,SW,236,3.1,3.6,49,0.00,,,0.00,VWS V14.01,2013-02-24 02:17:00,
2013-02-23 20:22:00,24.3,7.9,29.61,SW,224,3.6,3.6,49,0.00,,,0.00,VWS V14.01,2013-02-24 02:22:00,
2013-02-23 20:28:00,24.1,7.2,29.61,SW,231,3.6,4.9,48,0.00,,,0.00,VWS V14.01,2013-02-24 02:28:00,
2013-02-23 20:34:00,23.9,6.6,29.61,SW,234,3.1,5.4,47,0.00,,,0.00,VWS V14.01,2013-02-24 02:34:00,
2013-02-23 20:39:00,23.9,6.1,29.61,SW,236,3.6,5.4,46,0.00,,,0.00,VWS V14.01,2013-02-24 02:39:00,
2013-02-23 20:44:00,23.7,6.0,29.61,SW,231,3.6,4.0,46,0.00,,,0.00,VWS V14.01,2013-02-24 02:44:00,
2013-02-23 20:50:00,23.5,5.3,29.61,WSW,239,4.0,5.8,45,0.00,,,0.00,VWS V14.01,2013-02-24 02:50:00,
2013-02-23 20:56:00,23.5,5.3,29.61,WSW,253,4.9,4.9,45,0.00,,,0.00,VWS V14.01,2013-02-24 02:56:00,
2013-02-23 21:01:00,23.5,5.3,29.61,WSW,253,3.1,3.1,45,0.00,,OVC044,0.00,VWS V14.01,2013-02-24 03:01:00,
2013-02-23 21:06:00,23.5,5.3,29.61,WSW,248,3.1,3.6,45,0.00,,OVC044,0.00,VWS V14.01,2013-02-24 03:06:00,
2013-02-23 21:12:00,23.5,5.3,29.64,WSW,248,3.1,5.8,45,0.00,,OVC044,0.00,VWS V14.01,2013-02-24 03:12:00,
2013-02-23 21:17:00,23.5,5.3,29.64,WSW,241,4.0,5.4,45,0.00,,OVC044,0.00,VWS V14.01,2013-02-24 03:17:00,
2013-02-23 21:22:00,23.5,5.3,29.64,SW,231,4.0,4.0,45,0.00,,OVC044,0.00,VWS V14.01,2013-02-24 03:22:00,
2013-02-23 21:28:00,23.5,4.8,29.64,West,265,3.6,4.9,44,0.00,,OVC044,0.00,VWS V14.01,2013-02-24 03:28:00,
2013-02-23 21:33:00,23.5,4.8,29.64,WSW,254,3.1,3.1,44,0.00,,OVC044,0.00,VWS V14.01,2013-02-24 03:33:00,
2013-02-23 21:38:00,23.5,4.8,29.64,WSW,239,5.8,5.8,44,0.00,,OVC044,0.00,VWS V14.01,2013-02-24 03:38:00,
2013-02-23 21:44:00,23.5,4.8,29.61,WSW,250,4.9,4.9,44,0.00,,OVC044,0.00,VWS V14.01,2013-02-24 03:44:00,
2013-02-23 21:49:00,23.5,4.8,29.61,West,271,2.2,3.6,44,0.00,,OVC044,0.00,VWS V14.01,2013-02-24 03:49:00,
2013-02-23 21:54:00,23.5,4.8,29.64,SW,226,3.6,4.0,44,0.00,,OVC044,0.00,VWS V14.01,2013-02-24 03:54:00,
2013-02-23 21:59:00,23.5,4.8,29.64,SW,234,4.0,4.0,44,0.00,,OVC044,0.00,VWS V14.01,2013-02-24 03:59:00,
2013-02-23 22:04:00,23.5,5.3,29.64,WSW,252,2.7,4.9,45,0.00,,OVC044,0.00,VWS V14.01,2013-02-24 04:04:00,
2013-02-23 22:10:00,23.5,5.3,29.64,West,260,3.6,5.8,45,0.00,,OVC044,0.00,VWS V14.01,2013-02-24 04:10:00,
2013-02-23 22:16:00,23.7,5.5,29.64,WSW,256,3.6,3.6,45,0.00,,OVC044,0.00,VWS V14.01,2013-02-24 04:16:00,
2013-02-23 22:21:00,23.7,5.5,29.64,WSW,248,0.0,2.7,45,0.00,,OVC044,0.00,VWS V14.01,2013-02-24 04:21:00,
2013-02-23 22:27:00,23.7,5.5,29.61,SW,234,4.9,5.8,45,0.00,,OVC044,0.00,VWS V14.01,2013-02-24 04:27:00,
2013-02-23 22:32:00,23.7,5.5,29.61,WSW,252,0.0,3.6,45,0.00,,OVC044,0.00,VWS V14.01,2013-02-24 04:32:00,
2013-02-23 22:38:00,23.5,5.3,29.61,WSW,238,3.1,4.0,45,0.00,,OVC044,0.00,VWS V14.01,2013-02-24 04:38:00,
2013-02-23 22:44:00,23.5,5.8,29.61,SW,223,3.1,4.9,46,0.00,,OVC044,0.00,VWS V14.01,2013-02-24 04:44:00,
2013-02-23 22:49:00,23.5,5.3,29.61,WSW,255,2.7,3.1,45,0.00,,OVC044,0.00,VWS V14.01,2013-02-24 04:49:00,
2013-02-23 22:55:00,23.5,5.3,29.61,WSW,252,3.6,3.6,45,0.00,,OVC044,0.00,VWS V14.01,2013-02-24 04:55:00,
2013-02-23 23:00:00,23.4,5.7,29.61,WSW,255,3.1,4.0,46,0.00,,OVC044,0.00,VWS V14.01,2013-02-24 05:00:00,
2013-02-23 23:01:00,23.4,5.7,29.61,West,275,2.7,6.3,46,0.00,,OVC070,0.00,VWS V14.01,2013-02-24 05:01:00,
2013-02-23 23:02:00,23.4,5.7,29.61,West,274,2.7,2.7,46,0.00,,OVC070,0.00,VWS V14.01,2013-02-24 05:02:00,
2013-02-23 23:06:00,23.2,5.5,29.61,SW,227,3.1,4.9,46,0.00,,OVC070,0.00,VWS V14.01,2013-02-24 05:06:00,
2013-02-23 23:12:00,23.2,5.5,29.61,West,266,5.8,5.8,46,0.00,,OVC070,0.00,VWS V14.01,2013-02-24 05:12:00,
2013-02-23 23:17:00,23.2,5.5,29.61,WSW,257,3.6,4.0,46,0.00,,OVC070,0.00,VWS V14.01,2013-02-24 05:17:00,
2013-02-23 23:23:00,23.0,5.8,29.61,West,264,3.1,3.1,47,0.00,,OVC070,0.00,VWS V14.01,2013-02-24 05:23:00,
2013-02-23 23:28:00,22.8,5.6,29.64,WSW,258,2.2,3.6,47,0.00,,OVC070,0.00,VWS V14.01,2013-02-24 05:28:00,
2013-02-23 23:34:00,22.8,5.6,29.64,WSW,253,0.0,3.1,47,0.00,,OVC070,0.00,VWS V14.01,2013-02-24 05:34:00,
2013-02-23 23:40:00,22.8,6.1,29.64,West,272,2.7,3.6,48,0.00,,OVC070,0.00,VWS V14.01,2013-02-24 05:40:00,
2013-02-23 23:45:00,22.8,6.5,29.64,WSW,250,2.7,3.1,49,0.00,,OVC070,0.00,VWS V14.01,2013-02-24 05:45:00,
2013-02-23 23:51:00,22.8,7.0,29.64,West,260,3.1,4.0,50,0.00,,OVC070,0.00,VWS V14.01,2013-02-24 05:51:00,
2013-02-23 23:56:00,22.8,7.0,29.64,West,265,0.0,0.0,50,0.00,,OVC070,0.00,VWS V14.01,2013-02-24 05:56:00,